Port Heiden, AK

11:37 AM AKST on December 15, 2017 (GMT -0900)
Port Heiden

Weather History for PAPH - October, 2013

Change the Weather History Date:

Sunday, October 6, 2013

  Actual Average Record
Temperature  
Mean Temperature 44 °F -  
Max Temperature 48 °F 45 °F 55 °F (2002)
Min Temperature 41 °F 35 °F 26 °F (2014)
Degree Days  
Heating Degree Days 20    
Moisture  
Dew Point 36 °F    
Average Humidity 72    
Maximum Humidity 81    
Minimum Humidity 57    
Precipitation  
Precipitation 0.00 in - - ()
Sea Level Pressure  
Sea Level Pressure 29.82 in    
Wind  
Wind Speed 12 mph (SSW)    
Max Wind Speed 18 mph    
Max Gust Speed 23 mph    
Visibility 10 miles    
Events      
Averages and records for this station are not official NWS values.
T = Trace of Precipitation, MM = Missing Value Source: NWS Daily Summary

Daily Weather History Graph

Daily Weather History Graph

Search for Another Location

Airport or City:

Trip Planner

Search our weather history database for the weather conditions in past years. The results will help you decide how hot, cold, wet, or windy it might be!

Date:

Astronomy

Oct. 06, 2013 Rise Set
Actual Time 8:49 AM AKDT 7:54 PM AKDT
Civil Twilight 8:11 AM AKDT 8:32 PM AKDT
Nautical Twilight 7:27 AM AKDT 9:16 PM AKDT
Astronomical Twilight 6:41 AM AKDT 10:01 PM AKDT
Moon 11:16 AM AKDT (10/6) 8:29 PM AKDT (10/6)
Length of Visible Light 12h 20m
Length of Day
11h 04m
Waxing Crescent, 4% of the Moon is Illuminated
Oct 6
Waxing Crescent
Oct 11
First Quarter
Oct 18
Full
Oct 26
Last Quarter
Nov 3
New

Hourly Weather History & Observations

Time (AKDT) Temp. Windchill Dew Point Humidity Pressure Visibility Wind Dir Wind Speed Gust Speed Precip Events Conditions
12:16 AM 44.6 °F 37.2 °F 37.4 °F 76% 29.76 in 8.0 mi West 17.3 mph - N/A   Overcast
12:36 AM 44.6 °F 37.8 °F 37.4 °F 76% 29.77 in 9.0 mi West 15.0 mph - N/A   Overcast
12:56 AM 44.6 °F 38.1 °F 37.4 °F 76% 29.78 in 9.0 mi West 13.8 mph 18.4 mph N/A   Overcast
1:16 AM 44.6 °F 37.4 °F 37.4 °F 76% 29.78 in 10.0 mi West 16.1 mph 21.9 mph N/A   Overcast
1:36 AM 44.6 °F 38.1 °F 37.4 °F 76% 29.79 in 9.0 mi West 13.8 mph - N/A   Overcast
1:56 AM 44.6 °F 37.4 °F 37.4 °F 76% 29.79 in 10.0 mi West 16.1 mph 23.0 mph N/A   Overcast
2:16 AM 44.6 °F 37.8 °F 37.4 °F 76% 29.80 in 9.0 mi West 15.0 mph 21.9 mph N/A   Overcast
2:36 AM 44.6 °F 37.8 °F 37.4 °F 76% 29.81 in 9.0 mi West 15.0 mph - N/A   Mostly Cloudy
2:56 AM 44.6 °F 37.4 °F 37.4 °F 76% 29.82 in 9.0 mi West 16.1 mph - N/A   Overcast
3:16 AM 44.6 °F 38.1 °F 37.4 °F 76% 29.82 in 10.0 mi West 13.8 mph 21.9 mph N/A   Mostly Cloudy
3:36 AM 44.6 °F 37.8 °F 35.6 °F 71% 29.82 in 10.0 mi West 15.0 mph - N/A   Mostly Cloudy
3:56 AM 44.6 °F 37.8 °F 35.6 °F 71% 29.83 in 10.0 mi West 15.0 mph - N/A   Mostly Cloudy
4:16 AM 44.6 °F 38.4 °F 35.6 °F 71% 29.83 in 10.0 mi West 12.7 mph - N/A   Overcast
4:36 AM 44.6 °F 38.8 °F 37.4 °F 76% 29.83 in 10.0 mi WSW 11.5 mph - N/A   Overcast
4:56 AM 44.6 °F 38.8 °F 37.4 °F 76% 29.83 in 10.0 mi WSW 11.5 mph - N/A   Overcast
5:16 AM 44.6 °F 37.8 °F 37.4 °F 76% 29.83 in 10.0 mi WSW 15.0 mph - N/A   Overcast
5:36 AM 44.6 °F 39.7 °F 37.4 °F 76% 29.83 in 10.0 mi SW 9.2 mph - N/A   Mostly Cloudy
5:56 AM 42.8 °F 36.2 °F 35.6 °F 76% 29.83 in 10.0 mi SSW 12.7 mph - N/A   Overcast
6:16 AM 42.8 °F 36.2 °F 35.6 °F 76% 29.84 in 9.0 mi SSW 12.7 mph - N/A   Mostly Cloudy
6:36 AM 42.8 °F 36.2 °F 37.4 °F 81% 29.83 in 9.0 mi SSW 12.7 mph - N/A   Overcast
6:56 AM 42.8 °F 36.6 °F 35.6 °F 76% 29.83 in 8.0 mi SSW 11.5 mph - N/A   Overcast
7:16 AM 42.8 °F 36.6 °F 37.4 °F 81% 29.83 in 8.0 mi SW 11.5 mph - N/A   Overcast
7:36 AM 42.8 °F 36.2 °F 35.6 °F 76% 29.83 in 8.0 mi SSW 12.7 mph - N/A   Overcast
7:56 AM 42.8 °F 35.8 °F 35.6 °F 76% 29.83 in 8.0 mi SSW 13.8 mph - N/A   Overcast
8:16 AM 42.8 °F 37.0 °F 35.6 °F 76% 29.84 in 10.0 mi South 10.4 mph - N/A   Overcast
8:36 AM 42.8 °F 35.4 °F 35.6 °F 76% 29.84 in 8.0 mi SSW 15.0 mph - N/A   Overcast
8:56 AM 42.8 °F 37.5 °F 35.6 °F 76% 29.83 in 10.0 mi SSW 9.2 mph - N/A   Mostly Cloudy
9:16 AM 41.0 °F 35.2 °F 35.6 °F 81% 29.84 in 10.0 mi South 9.2 mph - N/A   Overcast
9:36 AM 42.8 °F 37.5 °F 35.6 °F 76% 29.83 in 10.0 mi South 9.2 mph - N/A   Overcast
9:56 AM 42.8 °F 36.6 °F 35.6 °F 76% 29.83 in 10.0 mi SSW 11.5 mph - N/A   Overcast
10:16 AM 42.8 °F 37.0 °F 35.6 °F 76% 29.83 in 10.0 mi South 10.4 mph - N/A   Overcast
10:36 AM 42.8 °F 37.0 °F 35.6 °F 76% 29.83 in 10.0 mi South 10.4 mph - N/A   Overcast
10:56 AM 44.6 °F 39.2 °F 35.6 °F 71% 29.83 in 10.0 mi South 10.4 mph - N/A   Overcast
11:16 AM 44.6 °F 38.4 °F 35.6 °F 71% 29.83 in 10.0 mi South 12.7 mph - N/A   Overcast
11:36 AM 44.6 °F 39.2 °F 35.6 °F 71% 29.83 in 10.0 mi South 10.4 mph - N/A   Overcast
11:56 AM 44.6 °F 40.2 °F 35.6 °F 71% 29.83 in 10.0 mi South 8.1 mph - N/A   Overcast
12:16 PM 46.4 °F 42.4 °F 35.6 °F 66% 29.83 in 10.0 mi South 8.1 mph - N/A   Overcast
12:36 PM 46.4 °F 42.4 °F 35.6 °F 66% 29.82 in 10.0 mi South 8.1 mph - N/A   Overcast
12:56 PM 46.4 °F 41.9 °F 35.6 °F 66% 29.83 in 10.0 mi South 9.2 mph - N/A   Overcast
1:16 PM 48.2 °F - 35.6 °F 62% 29.82 in 10.0 mi South 18.4 mph 23.0 mph N/A   Overcast
1:36 PM 46.4 °F 40.7 °F 32.0 °F 57% 29.83 in 10.0 mi SSW 12.7 mph - N/A   Overcast
1:56 PM 46.4 °F 41.5 °F 32.0 °F 57% 29.84 in 10.0 mi SSW 10.4 mph - N/A   Overcast
2:16 PM 46.4 °F 41.9 °F 35.6 °F 66% 29.83 in 9.0 mi SW 9.2 mph - N/A   Overcast
2:36 PM 44.6 °F 40.7 °F 37.4 °F 76% 29.83 in 10.0 mi South 6.9 mph - N/A   Overcast
2:56 PM 46.4 °F 43.5 °F 37.4 °F 71% 29.82 in 10.0 mi SSW 5.8 mph - N/A   Overcast
3:16 PM 46.4 °F 42.9 °F 35.6 °F 66% 29.83 in 10.0 mi SSW 6.9 mph - N/A   Overcast
3:36 PM 46.4 °F 42.9 °F 35.6 °F 66% 29.82 in 10.0 mi SSW 6.9 mph - N/A   Overcast
3:56 PM 46.4 °F 42.9 °F 35.6 °F 66% 29.81 in 10.0 mi SSW 6.9 mph - N/A   Overcast
4:16 PM 48.2 °F - 33.8 °F 58% 29.81 in 10.0 mi South 9.2 mph - N/A   Mostly Cloudy
4:36 PM 48.2 °F - 35.6 °F 62% 29.80 in 10.0 mi South 8.1 mph - N/A   Overcast
4:56 PM 48.2 °F - 35.6 °F 62% 29.79 in 10.0 mi South 10.4 mph - N/A   Mostly Cloudy
5:16 PM 48.2 °F - 35.6 °F 62% 29.80 in 10.0 mi South 10.4 mph - N/A   Overcast
5:36 PM 48.2 °F - 33.8 °F 58% 29.80 in 10.0 mi South 10.4 mph - N/A   Overcast
5:56 PM 46.4 °F 41.9 °F 35.6 °F 66% 29.80 in 10.0 mi South 9.2 mph - N/A   Overcast
6:16 PM 46.4 °F 41.9 °F 37.4 °F 71% 29.80 in 10.0 mi South 9.2 mph - N/A   Overcast
6:36 PM 46.4 °F 42.4 °F 35.6 °F 66% 29.80 in 10.0 mi South 8.1 mph - N/A   Overcast
6:56 PM 46.4 °F 41.5 °F 37.4 °F 71% 29.81 in 8.0 mi SSW 10.4 mph - N/A   Overcast
7:16 PM 46.4 °F 41.5 °F 37.4 °F 71% 29.81 in 10.0 mi SSW 10.4 mph - N/A   Overcast
7:36 PM 46.4 °F 42.4 °F 37.4 °F 71% 29.81 in 10.0 mi SSW 8.1 mph - N/A   Overcast
7:56 PM 44.6 °F 40.7 °F 37.4 °F 76% 29.81 in 10.0 mi South 6.9 mph - N/A   Overcast
8:16 PM 44.6 °F 40.2 °F 37.4 °F 76% 29.82 in 10.0 mi SSW 8.1 mph - N/A   Overcast
8:36 PM 44.6 °F 40.2 °F 37.4 °F 76% 29.82 in 10.0 mi SSW 8.1 mph - N/A   Overcast
8:56 PM 44.6 °F 40.7 °F 37.4 °F 76% 29.83 in 10.0 mi SSW 6.9 mph - N/A   Overcast
9:16 PM 44.6 °F 41.4 °F 37.4 °F 76% 29.82 in 10.0 mi SSW 5.8 mph - N/A   Overcast
9:36 PM 44.6 °F 41.4 °F 37.4 °F 76% 29.82 in 10.0 mi SSW 5.8 mph - N/A   Overcast
9:56 PM 44.6 °F 39.7 °F 37.4 °F 76% 29.82 in 10.0 mi South 9.2 mph - N/A   Overcast
10:16 PM 44.6 °F 39.2 °F 37.4 °F 76% 29.82 in 10.0 mi South 10.4 mph - N/A   Overcast
10:36 PM 44.6 °F 40.2 °F 37.4 °F 76% 29.83 in 10.0 mi South 8.1 mph - N/A   Overcast
10:56 PM 44.6 °F 40.2 °F 35.6 °F 71% 29.83 in 10.0 mi South 8.1 mph - N/A   Overcast
11:16 PM 44.6 °F 39.7 °F 35.6 °F 71% 29.83 in 10.0 mi South 9.2 mph - N/A   Overcast
11:36 PM 44.6 °F 39.7 °F 35.6 °F 71% 29.83 in 10.0 mi South 9.2 mph - N/A   Overcast
11:56 PM 44.6 °F 39.7 °F 35.6 °F 71% 29.82 in 10.0 mi South 9.2 mph - N/A   Overcast